This demonstration page uses our WeatherBlox Daily Observations layout. Learn more.

Left ArrowRight Arrow

34.74481, -87.66753

Hourly Observations for June 18, 2017

Temp ( °F °C ) Dew Point ( °F °C ) Humidity (%) Winds ( mph kmh ) Pressure ( in mb ) Visibility ( mi km ) Precip ( " mm )
12:53 am 00:53 Clear 75 23.9 67 19.4 76 76 S 3 6 29.80 1009 10 16 0.00 0.00
1:53 am 01:53 Clear 72 22.2 67 19.4 84 84 Calm 29.81 1010 10 16 0.00 0.00
2:53 am 02:53 Clear 72 22.2 67 19.4 84 84 Calm 29.84 1011 10 16 0.00 0.00
3:53 am 03:53 Clear 71 21.7 68 20 90 90 SSE 5 7 29.85 1011 10 16 0.00 0.00
4:53 am 04:53 Clear 71 21.7 68 20 90 90 Calm 29.85 1011 10 16 0.00 0.00
5:53 am 05:53 Sunny 72 22.2 69 20.6 91 91 Calm 29.86 1011 10 16 0.00 0.00
6:53 am 06:53 Sunny 74 23.3 70 21.1 88 88 SE 5 7 29.86 1011 10 16 0.00 0.00
7:09 am 07:09 Partly Cloudy 75 23.9 70 21.1 84 84 SSE 6 9 29.85 1011 10 16 0.00 0.00
7:18 am 07:18 Mostly Cloudy 75 23.9 71 21.7 88 88 SSE 6 9 29.85 1011 10 16 0.00 0.00
7:53 am 07:53 Cloudy 77 25 72 22.2 85 85 SW 8 13 29.88 1012 10 16 0.00 0.00
8:50 am 08:50 Cloudy 79 26 72 22 79 79 SW 9 15 29.91 1013 10 16 0.00 0.00
8:53 am 08:53 Cloudy 78 25.6 72 22.2 82 82 WSW 8 13 29.91 1013 10 16 0.00 0.00
9:53 am 09:53 Cloudy 79 26.1 73 22.8 82 82 WSW 7 11 29.90 1013 10 16 0.00 0.00
10:11 am 10:11 Cloudy with Nearby Thunderstorms 80 26.7 73 22.8 79 79 SW 6 9 29.88 1012 10 16 0.00 0.00
10:38 am 10:38 Cloudy 82 27.8 73 22.8 74 74 S 10 17 29.88 1012 10 16 0.00 0.00
10:53 am 10:53 Cloudy 82 27.8 72 22.2 72 72 SW 13 20 29.89 1012 10 16 0.00 0.00
11:43 am 11:43 Mostly Cloudy 84 28.9 73 22.8 70 70 S 9 15 29.88 1012 10 16 0.00 0.00
11:53 am 11:53 Mostly Cloudy 85 29.4 73 22.8 68 68 SSW 10 17 29.88 1012 10 16 0.00 0.00
12:53 pm 12:53 Mostly Sunny 87 30.6 73 22.8 63 63 SSW 17 28 29.87 1011 10 16 0.00 0.00
1:53 pm 13:53 Sunny 88 31.1 70 21.1 55 55 SSW 15 24 29.84 1011 10 16 0.00 0.00
2:53 pm 14:53 Mostly Sunny 89 31.7 70 21.1 53 53 SSW 12 19 29.82 1010 10 16 0.00 0.00
3:53 pm 15:53 Partly Cloudy 89 31.7 71 21.7 55 55 S 9 15 29.81 1010 10 16 0.00 0.00
4:53 pm 16:53 Mostly Sunny 88 31.1 71 21.7 57 57 S 13 20 29.82 1010 10 16 0.00 0.00
5:19 pm 17:19 Sunny with Nearby Thunderstorms 87 30.6 71 21.7 59 59 SSW 13 20 29.80 1009 10 16 0.00 0.00
5:53 pm 17:53 Windy with Storms Likely 81 27.2 70 21.1 69 69 NW 21 33 29.84 1010 10 16 0.00 0.03
6:07 pm 18:07 Mostly Cloudy with Thunderstorms 77 25 69 20.6 77 77 WSW 8 13 29.85 1011 9 14 0.02 0.51
6:53 pm 18:53 Mostly Cloudy with Light Rain 74 23.3 70 21.1 88 88 E 5 7 29.87 1012 10 16 0.18 4.57
7:09 pm 19:09 Mostly Cloudy with Nearby Thunderstorms 74 23.3 70 21.1 88 88 Calm 29.85 1011 10 16 0.00 0.03
7:35 pm 19:35 Cloudy 74 23.3 71 21.7 91 91 SE 7 11 29.85 1011 10 16 0.00 0.03
7:53 pm 19:53 Cloudy 73 22.8 70 21.1 90 90 SE 7 11 29.86 1011 10 16 0.00 0.03
8:27 pm 20:27 Mostly Clear 74 23.3 71 21.7 91 91 SE 5 7 29.85 1011 10 16 0.00 0.00
8:41 pm 20:41 Mostly Clear 73 22.8 69 20.6 87 87 SSE 5 7 29.85 1011 10 16 0.00 0.00
8:53 pm 20:53 Clear 73 22.8 69 20.6 87 87 S 8 13 29.88 1012 10 16 0.00 0.00
9:53 pm 21:53 Mostly Clear 73 22.8 69 20.6 87 87 SW 8 13 29.91 1013 10 16 0.00 0.00

Powered by AerisWeather